| time (UTC) | temp F | wind direction | speed MPH | gust MPH | rain 1hr in | rain 24hr in | rain mn in | humidity % | barometer mb |
| 20260831115544 | 71 | 132 | 0.0 | 2.0 | 0.00 | 0.00 | 0.00 | 74 | 1018.1 |
| 20260831115044 | 71 | 161 | 0.0 | 2.0 | 0.00 | 0.00 | 0.00 | 74 | 1018.1 |
| 20260831114609 | 71 | 119 | 0.0 | 2.0 | 0.00 | 0.00 | 0.00 | 74 | 1018.0 |
| 20260831114043 | 71 | 129 | 0.0 | 1.0 | 0.00 | 0.00 | 0.00 | 74 | 1017.9 |
| 20260831113545 | 71 | 131 | 0.0 | 1.0 | 0.00 | 0.00 | 0.00 | 74 | 1017.8 |
| 20260831113107 | 71 | 0 | 0.0 | 1.0 | 0.00 | 0.00 | 0.00 | 74 | 1017.8 |
| 20260831112544 | 71 | 140 | 0.0 | 1.0 | 0.00 | 0.00 | 0.00 | 73 | 1017.7 |
| 20260831112044 | 71 | 0 | 0.0 | 1.0 | 0.00 | 0.00 | 0.00 | 73 | 1017.8 |
| 20260831111606 | 71 | 126 | 0.0 | 3.0 | 0.00 | 0.00 | 0.00 | 73 | 1017.7 |
| 20260831111045 | 71 | 202 | 0.0 | 3.0 | 0.00 | 0.00 | 0.00 | 73 | 1017.7 |
| 20260831110547 | 71 | 146 | 0.0 | 3.0 | 0.00 | 0.00 | 0.00 | 73 | 1017.6 |
| 20260831110107 | 72 | 0 | 0.0 | 3.0 | 0.00 | 0.00 | 0.00 | 72 | 1017.6 |
| 20260831105543 | 72 | 0 | 0.0 | 3.0 | 0.00 | 0.00 | 0.00 | 72 | 1017.6 |
| 20260831105044 | 72 | 0 | 1.0 | 4.0 | 0.00 | 0.00 | 0.00 | 72 | 1017.5 |
| 20260831104600 | 72 | 146 | 0.0 | 4.0 | 0.00 | 0.00 | 0.00 | 71 | 1017.5 |
| 20260831104043 | 72 | 201 | 1.0 | 3.0 | 0.00 | 0.00 | 0.00 | 71 | 1017.5 |
| 20260831103544 | 72 | 146 | 0.0 | 3.0 | 0.00 | 0.00 | 0.00 | 71 | 1017.5 |
| 20260831103108 | 72 | 171 | 0.0 | 4.0 | 0.00 | 0.00 | 0.00 | 71 | 1017.5 |
| 20260831102543 | 72 | 130 | 1.0 | 4.0 | 0.00 | 0.00 | 0.00 | 71 | 1017.5 |
| 20260831102043 | 72 | 133 | 1.0 | 3.0 | 0.00 | 0.00 | 0.00 | 71 | 1017.4 |
| 20260831101605 | 72 | 154 | 1.0 | 7.0 | 0.00 | 0.00 | 0.00 | 71 | 1017.5 |
| 20260831101043 | 72 | 136 | 2.0 | 7.0 | 0.00 | 0.00 | 0.00 | 71 | 1017.5 |
| 20260831100543 | 72 | 154 | 1.0 | 4.0 | 0.00 | 0.00 | 0.00 | 71 | 1017.5 |
| 20260831100127 | 72 | 152 | 1.0 | 4.0 | 0.00 | 0.00 | 0.00 | 71 | 1017.5 |
| 20260831095545 | 72 | 139 | 0.0 | 2.0 | 0.00 | 0.00 | 0.00 | 71 | 1017.5 |
| 20260831095044 | 72 | 128 | 1.0 | 3.0 | 0.00 | 0.00 | 0.00 | 71 | 1017.5 |
| 20260831094607 | 72 | 118 | 0.0 | 3.0 | 0.00 | 0.00 | 0.00 | 71 | 1017.5 |
| 20260831094043 | 72 | 131 | 0.0 | 3.0 | 0.00 | 0.00 | 0.00 | 71 | 1017.6 |
| 20260831093545 | 72 | 0 | 0.0 | 3.0 | 0.00 | 0.00 | 0.00 | 70 | 1017.6 |
| 20260831093133 | 73 | 143 | 1.0 | 4.0 | 0.00 | 0.00 | 0.00 | 70 | 1017.5 |
| 20260831092543 | 73 | 130 | 2.0 | 4.0 | 0.00 | 0.00 | 0.00 | 70 | 1017.6 |
| 20260831092045 | 73 | 144 | 1.0 | 5.0 | 0.00 | 0.00 | 0.00 | 70 | 1017.6 |
| 20260831091604 | 73 | 148 | 1.0 | 6.0 | 0.00 | 0.00 | 0.00 | 70 | 1017.5 |
| 20260831091043 | 73 | 197 | 1.0 | 6.0 | 0.00 | 0.00 | 0.00 | 70 | 1017.5 |
| 20260831090544 | 73 | 135 | 1.0 | 5.0 | 0.00 | 0.00 | 0.00 | 70 | 1017.5 |
| 20260831090134 | 73 | 159 | 2.0 | 5.0 | 0.00 | 0.00 | 0.00 | 70 | 1017.5 |
| 20260831085547 | 73 | 229 | 1.0 | 6.0 | 0.00 | 0.00 | 0.00 | 70 | 1017.5 |
| 20260831085046 | 73 | 130 | 1.0 | 6.0 | 0.00 | 0.00 | 0.00 | 70 | 1017.5 |
| 20260831084600 | 73 | 132 | 1.0 | 8.0 | 0.00 | 0.00 | 0.00 | 70 | 1017.5 |
| 20260831084047 | 73 | 134 | 2.0 | 8.0 | 0.00 | 0.00 | 0.00 | 70 | 1017.5 |
| 20260831083543 | 73 | 169 | 1.0 | 5.0 | 0.00 | 0.00 | 0.00 | 69 | 1017.4 |
| 20260831083111 | 73 | 144 | 2.0 | 7.0 | 0.00 | 0.00 | 0.00 | 69 | 1017.4 |
| 20260831082543 | 73 | 157 | 1.0 | 7.0 | 0.00 | 0.00 | 0.00 | 70 | 1017.3 |
| 20260831082043 | 73 | 146 | 2.0 | 5.0 | 0.00 | 0.00 | 0.00 | 70 | 1017.3 |
| 20260831081606 | 73 | 136 | 2.0 | 5.0 | 0.00 | 0.00 | 0.00 | 70 | 1017.2 |
| 20260831081044 | 73 | 164 | 0.0 | 3.0 | 0.00 | 0.00 | 0.00 | 69 | 1017.2 |
| 20260831080543 | 73 | 155 | 1.0 | 7.0 | 0.00 | 0.00 | 0.00 | 69 | 1017.3 |
| 20260831080129 | 73 | 139 | 1.0 | 7.0 | 0.00 | 0.00 | 0.00 | 69 | 1017.1 |
| 20260831075543 | 74 | 147 | 1.0 | 8.0 | 0.00 | 0.00 | 0.00 | 69 | 1017.1 |
| 20260831075043 | 74 | 134 | 1.0 | 8.0 | 0.00 | 0.00 | 0.00 | 68 | 1017.1 |
| 20260831074608 | 74 | 143 | 2.0 | 8.0 | 0.00 | 0.00 | 0.00 | 68 | 1017.1 |
| 20260831074044 | 74 | 188 | 1.0 | 5.0 | 0.00 | 0.00 | 0.00 | 68 | 1017.1 |
| 20260831073546 | 74 | 139 | 1.0 | 5.0 | 0.00 | 0.00 | 0.00 | 68 | 1017.2 |
| 20260831073102 | 74 | 145 | 1.0 | 6.0 | 0.00 | 0.00 | 0.00 | 68 | 1017.1 |
| 20260831072542 | 74 | 145 | 2.0 | 6.0 | 0.00 | 0.00 | 0.00 | 67 | 1017.2 |
| 20260831072043 | 74 | 157 | 1.0 | 7.0 | 0.00 | 0.00 | 0.00 | 67 | 1017.2 |
| 20260831071558 | 75 | 143 | 3.0 | 12.0 | 0.00 | 0.00 | 0.00 | 67 | 1017.2 |
| 20260831071043 | 75 | 139 | 2.0 | 12.0 | 0.00 | 0.00 | 0.00 | 67 | 1017.2 |
| 20260831070545 | 75 | 133 | 2.0 | 6.0 | 0.00 | 0.00 | 0.00 | 67 | 1017.2 |
| 20260831070104 | 75 | 153 | 2.0 | 6.0 | 0.00 | 0.00 | 0.00 | 67 | 1017.3 |
| 20260831065543 | 75 | 153 | 2.0 | 7.0 | 0.00 | 0.00 | 0.00 | 67 | 1017.4 |
| 20260831065042 | 75 | 130 | 2.0 | 7.0 | 0.00 | 0.00 | 0.00 | 67 | 1017.3 |
| 20260831064609 | 75 | 165 | 2.0 | 7.0 | 0.00 | 0.00 | 0.00 | 67 | 1017.4 |
| 20260831064042 | 75 | 147 | 2.0 | 5.0 | 0.00 | 0.00 | 0.00 | 68 | 1017.4 |
| 20260831063543 | 75 | 149 | 2.0 | 6.0 | 0.00 | 0.00 | 0.00 | 68 | 1017.4 |
| 20260831063112 | 75 | 158 | 2.0 | 7.0 | 0.00 | 0.00 | 0.00 | 68 | 1017.5 |
| 20260831062544 | 75 | 132 | 2.0 | 7.0 | 0.00 | 0.00 | 0.00 | 68 | 1017.5 |
| 20260831062044 | 75 | 173 | 2.0 | 6.0 | 0.00 | 0.00 | 0.00 | 68 | 1017.4 |
| 20260831061601 | 75 | 142 | 2.0 | 5.0 | 0.00 | 0.00 | 0.00 | 68 | 1017.5 |
| 20260831061045 | 75 | 136 | 2.0 | 6.0 | 0.00 | 0.00 | 0.00 | 68 | 1017.5 |
| 20260831060543 | 76 | 148 | 2.0 | 6.0 | 0.00 | 0.00 | 0.00 | 67 | 1017.5 |
| 20260831060111 | 76 | 134 | 2.0 | 6.0 | 0.00 | 0.00 | 0.00 | 67 | 1017.5 |
| 20260831055543 | 76 | 127 | 2.0 | 6.0 | 0.00 | 0.00 | 0.00 | 67 | 1017.5 |
| 20260831055045 | 76 | 134 | 3.0 | 5.0 | 0.00 | 0.00 | 0.00 | 67 | 1017.4 |
| 20260831054612 | 76 | 146 | 2.0 | 5.0 | 0.00 | 0.00 | 0.00 | 67 | 1017.4 |
| 20260831054043 | 76 | 132 | 2.0 | 6.0 | 0.00 | 0.00 | 0.00 | 67 | 1017.4 |
| 20260831053543 | 76 | 140 | 2.0 | 6.0 | 0.00 | 0.00 | 0.00 | 67 | 1017.4 |
| 20260831053132 | 76 | 155 | 3.0 | 7.0 | 0.00 | 0.00 | 0.00 | 67 | 1017.4 |
| 20260831052544 | 76 | 130 | 2.0 | 7.0 | 0.00 | 0.00 | 0.00 | 66 | 1017.4 |
| 20260831052043 | 76 | 137 | 1.0 | 7.0 | 0.00 | 0.00 | 0.00 | 66 | 1017.4 |
| 20260831051607 | 77 | 148 | 2.0 | 7.0 | 0.00 | 0.00 | 0.00 | 66 | 1017.4 |
| 20260831051043 | 77 | 148 | 2.0 | 7.0 | 0.00 | 0.00 | 0.00 | 66 | 1017.3 |
| 20260831050621 | 77 | 163 | 2.0 | 6.0 | 0.00 | 0.00 | 0.00 | 66 | 1017.3 |
| 20260831050543 | 77 | 163 | 2.0 | 6.0 | 0.00 | 0.00 | 0.00 | 66 | 1017.3 |
| 20260831050111 | 77 | 146 | 1.0 | 6.0 | 0.00 | 0.00 | 0.00 | 66 | 1017.2 |
| 20260831045544 | 77 | 144 | 2.0 | 9.0 | 0.00 | 0.00 | 0.00 | 66 | 1017.2 |
| 20260831045043 | 77 | 140 | 2.0 | 9.0 | 0.00 | 0.00 | 0.00 | 66 | 1017.2 |
| 20260831044645 | 77 | 144 | 2.0 | 9.0 | 0.00 | 0.00 | 0.00 | 66 | 1017.1 |
| 20260831044043 | 77 | 143 | 1.0 | 6.0 | 0.00 | 0.00 | 0.00 | 66 | 1016.9 |
| 20260831043543 | 77 | 142 | 2.0 | 8.0 | 0.00 | 0.00 | 0.00 | 65 | 1016.8 |
| 20260831043100 | 77 | 136 | 2.0 | 8.0 | 0.00 | 0.00 | 0.00 | 65 | 1016.7 |
| 20260831042543 | 77 | 144 | 2.0 | 8.0 | 0.00 | 0.00 | 0.00 | 65 | 1016.8 |
| 20260831042043 | 77 | 140 | 2.0 | 6.0 | 0.00 | 0.00 | 0.00 | 65 | 1016.7 |
| 20260831041616 | 77 | 139 | 1.0 | 4.0 | 0.00 | 0.00 | 0.00 | 66 | 1016.7 |
| 20260831041043 | 77 | 171 | 1.0 | 4.0 | 0.00 | 0.00 | 0.00 | 65 | 1016.6 |
| 20260831040545 | 78 | 154 | 1.0 | 4.0 | 0.00 | 0.00 | 0.00 | 65 | 1016.6 |
| 20260831040059 | 78 | 157 | 1.0 | 4.0 | 0.00 | 0.00 | 0.00 | 65 | 1016.6 |
| 20260831035544 | 78 | 148 | 1.0 | 4.0 | 0.00 | 0.00 | 0.00 | 65 | 1016.6 |
| 20260831035044 | 78 | 148 | 1.0 | 4.0 | 0.00 | 0.00 | 0.00 | 64 | 1016.5 |
| 20260831034609 | 78 | 164 | 1.0 | 5.0 | 0.00 | 0.00 | 0.00 | 64 | 1016.5 |
| 20260831034043 | 79 | 153 | 1.0 | 7.0 | 0.00 | 0.00 | 0.00 | 63 | 1016.5 |
| 20260831033544 | 79 | 153 | 2.0 | 7.0 | 0.00 | 0.00 | 0.00 | 62 | 1016.5 |
| 20260831033111 | 79 | 200 | 2.0 | 9.0 | 0.00 | 0.00 | 0.00 | 62 | 1016.6 |
| 20260831032543 | 79 | 140 | 3.0 | 9.0 | 0.00 | 0.00 | 0.00 | 61 | 1016.6 |
| 20260831032042 | 79 | 134 | 3.0 | 9.0 | 0.00 | 0.00 | 0.00 | 61 | 1016.6 |
| 20260831031602 | 79 | 149 | 3.0 | 9.0 | 0.00 | 0.00 | 0.00 | 61 | 1016.7 |
| 20260831031043 | 79 | 138 | 4.0 | 7.0 | 0.00 | 0.00 | 0.00 | 61 | 1016.7 |
| 20260831030546 | 79 | 153 | 2.0 | 9.0 | 0.00 | 0.00 | 0.00 | 60 | 1016.6 |
| 20260831025545 | 79 | 137 | 3.0 | 7.0 | 0.00 | 0.00 | 0.00 | 59 | 1016.7 |
| 20260831025044 | 79 | 144 | 2.0 | 8.0 | 0.00 | 0.00 | 0.00 | 59 | 1016.6 |
| 20260831024558 | 80 | 144 | 2.0 | 8.0 | 0.00 | 0.00 | 0.00 | 58 | 1016.6 |
| 20260831024045 | 80 | 140 | 2.0 | 7.0 | 0.00 | 0.00 | 0.00 | 58 | 1016.6 |
| 20260831023543 | 80 | 137 | 3.0 | 6.0 | 0.00 | 0.00 | 0.00 | 58 | 1016.5 |
| 20260831023107 | 80 | 134 | 2.0 | 6.0 | 0.00 | 0.00 | 0.00 | 57 | 1016.5 |
| 20260831022544 | 80 | 140 | 2.0 | 8.0 | 0.00 | 0.00 | 0.00 | 57 | 1016.5 |
| 20260831022044 | 80 | 124 | 2.0 | 8.0 | 0.00 | 0.00 | 0.00 | 57 | 1016.4 |
| 20260831021601 | 80 | 133 | 2.0 | 6.0 | 0.00 | 0.00 | 0.00 | 57 | 1016.4 |
| 20260831021044 | 80 | 137 | 2.0 | 6.0 | 0.00 | 0.00 | 0.00 | 57 | 1016.4 |
| 20260831020544 | 80 | 143 | 1.0 | 3.0 | 0.00 | 0.00 | 0.00 | 57 | 1016.3 |
| 20260831020104 | 80 | 128 | 1.0 | 3.0 | 0.00 | 0.00 | 0.00 | 57 | 1016.2 |
| 20260831015547 | 81 | 111 | 1.0 | 4.0 | 0.00 | 0.00 | 0.00 | 57 | 1016.2 |
| 20260831015046 | 81 | 148 | 1.0 | 4.0 | 0.00 | 0.00 | 0.00 | 57 | 1016.0 |
| 20260831014600 | 81 | 137 | 1.0 | 4.0 | 0.00 | 0.00 | 0.00 | 57 | 1016.0 |
| 20260831014043 | 81 | 110 | 1.0 | 4.0 | 0.00 | 0.00 | 0.00 | 57 | 1015.9 |
| 20260831013543 | 81 | 132 | 1.0 | 5.0 | 0.00 | 0.00 | 0.00 | 56 | 1015.8 |
| 20260831013105 | 82 | 132 | 1.0 | 5.0 | 0.00 | 0.00 | 0.00 | 56 | 1015.7 |
| 20260831012545 | 82 | 153 | 1.0 | 5.0 | 0.00 | 0.00 | 0.00 | 55 | 1015.7 |
| 20260831012044 | 82 | 130 | 1.0 | 5.0 | 0.00 | 0.00 | 0.00 | 55 | 1015.6 |
| 20260831011604 | 83 | 146 | 1.0 | 5.0 | 0.00 | 0.00 | 0.00 | 54 | 1015.6 |
| 20260831011043 | 83 | 126 | 2.0 | 5.0 | 0.00 | 0.00 | 0.00 | 53 | 1015.5 |
| 20260831010544 | 83 | 138 | 2.0 | 5.0 | 0.00 | 0.00 | 0.00 | 54 | 1015.5 |
| 20260831010119 | 83 | 140 | 1.0 | 5.0 | 0.00 | 0.00 | 0.00 | 54 | 1015.5 |
| 20260831005544 | 83 | 128 | 1.0 | 3.0 | 0.00 | 0.00 | 0.00 | 54 | 1015.4 |
| 20260831005044 | 84 | 132 | 1.0 | 4.0 | 0.00 | 0.00 | 0.00 | 53 | 1015.4 |
| 20260831004619 | 84 | 130 | 1.0 | 4.0 | 0.00 | 0.00 | 0.00 | 53 | 1015.5 |
| 20260831004045 | 85 | 117 | 1.0 | 5.0 | 0.00 | 0.00 | 0.00 | 53 | 1015.4 |
| 20260831003544 | 85 | 129 | 1.0 | 5.0 | 0.00 | 0.00 | 0.00 | 52 | 1015.5 |
| 20260831003113 | 86 | 131 | 1.0 | 3.0 | 0.00 | 0.00 | 0.00 | 52 | 1015.6 |
| 20260831002543 | 86 | 136 | 1.0 | 3.0 | 0.00 | 0.00 | 0.00 | 52 | 1015.6 |
| 20260831002044 | 87 | 128 | 1.0 | 3.0 | 0.00 | 0.00 | 0.00 | 52 | 1015.7 |
| 20260831001601 | 87 | 145 | 1.0 | 2.0 | 0.00 | 0.00 | 0.00 | 52 | 1015.7 |
| 20260831001044 | 87 | 131 | 0.0 | 2.0 | 0.00 | 0.00 | 0.00 | 52 | 1015.7 |
| 20260831000544 | 87 | 125 | 0.0 | 2.0 | 0.00 | 0.00 | 0.00 | 53 | 1015.8 |
| 20260831000111 | 87 | 138 | 0.0 | 1.0 | 0.00 | 0.00 | 0.00 | 52 | 1015.7 |
| 20260830235543 | 87 | 134 | 1.0 | 1.0 | 0.00 | 0.00 | 0.00 | 53 | 1015.8 |
| 20260830235043 | 87 | 140 | 0.0 | 1.0 | 0.00 | 0.00 | 0.00 | 52 | 1015.7 |
| 20260830234631 | 87 | 134 | 0.0 | 1.0 | 0.00 | 0.00 | 0.00 | 52 | 1015.7 |
| 20260830234043 | 87 | 136 | 0.0 | 1.0 | 0.00 | 0.00 | 0.00 | 52 | 1015.8 |
| 20260830233545 | 88 | 0 | 0.0 | 2.0 | 0.00 | 0.00 | 0.00 | 51 | 1015.8 |
| 20260830233104 | 89 | 140 | 0.0 | 2.0 | 0.00 | 0.00 | 0.00 | 49 | 1015.9 |
| 20260830232545 | 89 | 129 | 1.0 | 3.0 | 0.00 | 0.00 | 0.00 | 49 | 1015.8 |
| 20260830232046 | 90 | 0 | 0.0 | 4.0 | 0.00 | 0.00 | 0.00 | 48 | 1015.9 |
| 20260830231607 | 90 | 142 | 1.0 | 4.0 | 0.00 | 0.00 | 0.00 | 47 | 1015.9 |
| 20260830231046 | 91 | 148 | 1.0 | 4.0 | 0.00 | 0.00 | 0.00 | 47 | 1015.9 |
| 20260830230547 | 91 | 140 | 1.0 | 5.0 | 0.00 | 0.00 | 0.00 | 47 | 1015.8 |
| 20260830230109 | 91 | 129 | 1.0 | 5.0 | 0.00 | 0.00 | 0.00 | 47 | 1015.8 |
| 20260830225545 | 91 | 142 | 1.0 | 3.0 | 0.00 | 0.00 | 0.00 | 45 | 1015.9 |
| 20260830225045 | 91 | 151 | 1.0 | 3.0 | 0.00 | 0.00 | 0.00 | 45 | 1015.9 |
| 20260830224604 | 91 | 132 | 1.0 | 4.0 | 0.00 | 0.00 | 0.00 | 46 | 1015.8 |
| 20260830224042 | 92 | 145 | 1.0 | 4.0 | 0.00 | 0.00 | 0.00 | 46 | 1015.8 |
| 20260830223548 | 92 | 153 | 1.0 | 3.0 | 0.00 | 0.00 | 0.00 | 46 | 1015.8 |
| 20260830223100 | 92 | 146 | 0.0 | 3.0 | 0.00 | 0.00 | 0.00 | 46 | 1015.8 |
| 20260830222546 | 92 | 123 | 1.0 | 5.0 | 0.00 | 0.00 | 0.00 | 45 | 1015.9 |
| 20260830222045 | 92 | 127 | 2.0 | 6.0 | 0.00 | 0.00 | 0.00 | 45 | 1015.8 |
| 20260830221558 | 92 | 128 | 1.0 | 6.0 | 0.00 | 0.00 | 0.00 | 46 | 1015.8 |
| 20260830221045 | 91 | 132 | 2.0 | 4.0 | 0.00 | 0.00 | 0.00 | 45 | 1015.9 |
| 20260830220545 | 91 | 139 | 0.0 | 4.0 | 0.00 | 0.00 | 0.00 | 47 | 1015.9 |
| 20260830220109 | 91 | 167 | 1.0 | 4.0 | 0.00 | 0.00 | 0.00 | 45 | 1016.0 |
| 20260830215544 | 91 | 146 | 1.0 | 6.0 | 0.00 | 0.00 | 0.00 | 46 | 1016.0 |
| 20260830215045 | 92 | 146 | 1.0 | 6.0 | 0.00 | 0.00 | 0.00 | 45 | 1016.1 |
| 20260830214604 | 92 | 194 | 1.0 | 5.0 | 0.00 | 0.00 | 0.00 | 45 | 1016.1 |
| 20260830214045 | 93 | 0 | 0.0 | 5.0 | 0.00 | 0.00 | 0.00 | 45 | 1016.2 |
| 20260830213545 | 93 | 273 | 2.0 | 5.0 | 0.00 | 0.00 | 0.00 | 44 | 1016.2 |
| 20260830213116 | 93 | 133 | 1.0 | 4.0 | 0.00 | 0.00 | 0.00 | 43 | 1016.2 |
| 20260830212543 | 93 | 171 | 1.0 | 7.0 | 0.00 | 0.00 | 0.00 | 41 | 1016.2 |
| 20260830212047 | 94 | 130 | 3.0 | 7.0 | 0.00 | 0.00 | 0.00 | 42 | 1016.2 |
| 20260830211608 | 94 | 174 | 2.0 | 7.0 | 0.00 | 0.00 | 0.00 | 43 | 1016.2 |
| 20260830211046 | 94 | 136 | 2.0 | 6.0 | 0.00 | 0.00 | 0.00 | 42 | 1016.3 |
| 20260830210545 | 95 | 223 | 2.0 | 4.0 | 0.00 | 0.00 | 0.00 | 42 | 1016.3 |
| 20260830210103 | 94 | 193 | 1.0 | 4.0 | 0.00 | 0.00 | 0.00 | 42 | 1016.3 |
| 20260830205545 | 94 | 219 | 1.0 | 4.0 | 0.00 | 0.00 | 0.00 | 43 | 1016.4 |
| 20260830205045 | 93 | 175 | 1.0 | 5.0 | 0.00 | 0.00 | 0.00 | 43 | 1016.4 |
| 20260830204602 | 94 | 167 | 1.0 | 5.0 | 0.00 | 0.00 | 0.00 | 44 | 1016.4 |
| 20260830204045 | 94 | 124 | 1.0 | 5.0 | 0.00 | 0.00 | 0.00 | 42 | 1016.5 |
| 20260830203545 | 94 | 130 | 2.0 | 8.0 | 0.00 | 0.00 | 0.00 | 42 | 1016.5 |
| 20260830203106 | 95 | 212 | 3.0 | 8.0 | 0.00 | 0.00 | 0.00 | 42 | 1016.6 |
| 20260830202546 | 95 | 168 | 2.0 | 8.0 | 0.00 | 0.00 | 0.00 | 43 | 1016.6 |
| 20260830202042 | 95 | 142 | 3.0 | 8.0 | 0.00 | 0.00 | 0.00 | 43 | 1016.6 |
| 20260830201607 | 95 | 165 | 4.0 | 8.0 | 0.00 | 0.00 | 0.00 | 43 | 1016.7 |
| 20260830201046 | 95 | 223 | 2.0 | 8.0 | 0.00 | 0.00 | 0.00 | 43 | 1016.6 |
| 20260830200544 | 95 | 260 | 2.0 | 8.0 | 0.00 | 0.00 | 0.00 | 43 | 1016.6 |
| 20260830195543 | 95 | 154 | 1.0 | 9.0 | 0.00 | 0.00 | 0.00 | 46 | 1016.8 |
| 20260830195045 | 94 | 254 | 2.0 | 9.0 | 0.00 | 0.00 | 0.00 | 46 | 1016.9 |
| 20260830194607 | 94 | 158 | 2.0 | 7.0 | 0.00 | 0.00 | 0.00 | 46 | 1016.9 |
| 20260830194043 | 94 | 132 | 2.0 | 7.0 | 0.00 | 0.00 | 0.00 | 44 | 1017.0 |
| 20260830193542 | 94 | 174 | 1.0 | 6.0 | 0.00 | 0.00 | 0.00 | 44 | 1017.1 |
| 20260830193106 | 93 | 233 | 3.0 | 9.0 | 0.00 | 0.00 | 0.00 | 44 | 1017.2 |
| 20260830192542 | 93 | 207 | 4.0 | 9.0 | 0.00 | 0.00 | 0.00 | 46 | 1017.2 |
| 20260830192042 | 93 | 230 | 2.0 | 8.0 | 0.00 | 0.00 | 0.00 | 44 | 1017.2 |
| 20260830191603 | 93 | 163 | 3.0 | 7.0 | 0.00 | 0.00 | 0.00 | 46 | 1017.2 |
| 20260830191043 | 93 | 196 | 3.0 | 11.0 | 0.00 | 0.00 | 0.00 | 46 | 1017.2 |
| 20260830190543 | 93 | 240 | 2.0 | 11.0 | 0.00 | 0.00 | 0.00 | 47 | 1017.3 |
| 20260830185546 | 92 | 132 | 3.0 | 9.0 | 0.00 | 0.00 | 0.00 | 47 | 1017.3 |
| 20260830185043 | 91 | 189 | 2.0 | 8.0 | 0.00 | 0.00 | 0.00 | 49 | 1017.4 |
| 20260830184604 | 91 | 142 | 3.0 | 9.0 | 0.00 | 0.00 | 0.00 | 48 | 1017.4 |
| 20260830184044 | 91 | 217 | 3.0 | 9.0 | 0.00 | 0.00 | 0.00 | 48 | 1017.5 |
| 20260830183544 | 91 | 130 | 4.0 | 9.0 | 0.00 | 0.00 | 0.00 | 45 | 1017.6 |
| 20260830183108 | 91 | 205 | 5.0 | 9.0 | 0.00 | 0.00 | 0.00 | 47 | 1017.7 |
| 20260830182544 | 92 | 146 | 2.0 | 8.0 | 0.00 | 0.00 | 0.00 | 47 | 1017.7 |
| 20260830182044 | 91 | 205 | 3.0 | 8.0 | 0.00 | 0.00 | 0.00 | 48 | 1017.8 |
| 20260830181602 | 91 | 132 | 4.0 | 8.0 | 0.00 | 0.00 | 0.00 | 47 | 1017.8 |
| 20260830181044 | 91 | 115 | 4.0 | 14.0 | 0.00 | 0.00 | 0.00 | 49 | 1017.9 |
| 20260830180544 | 90 | 193 | 3.0 | 14.0 | 0.00 | 0.00 | 0.00 | 49 | 1017.9 |
| 20260830180111 | 90 | 215 | 3.0 | 14.0 | 0.00 | 0.00 | 0.00 | 49 | 1017.9 |
| 20260830175543 | 89 | 167 | 3.0 | 12.0 | 0.00 | 0.00 | 0.00 | 50 | 1018.1 |
| 20260830175045 | 89 | 132 | 4.0 | 12.0 | 0.00 | 0.00 | 0.00 | 48 | 1018.1 |
| 20260830174618 | 89 | 163 | 3.0 | 9.0 | 0.00 | 0.00 | 0.00 | 49 | 1018.1 |
| 20260830174043 | 89 | 123 | 5.0 | 9.0 | 0.00 | 0.00 | 0.00 | 50 | 1018.2 |
| 20260830173543 | 90 | 154 | 4.0 | 9.0 | 0.00 | 0.00 | 0.00 | 50 | 1018.2 |
| 20260830173107 | 89 | 152 | 2.0 | 9.0 | 0.00 | 0.00 | 0.00 | 52 | 1018.3 |
| 20260830172545 | 89 | 155 | 3.0 | 7.0 | 0.00 | 0.00 | 0.00 | 53 | 1018.2 |
| 20260830172044 | 88 | 175 | 3.0 | 7.0 | 0.00 | 0.00 | 0.00 | 54 | 1018.2 |
| 20260830171603 | 88 | 195 | 2.0 | 8.0 | 0.00 | 0.00 | 0.00 | 53 | 1018.3 |
| 20260830171043 | 88 | 231 | 3.0 | 8.0 | 0.00 | 0.00 | 0.00 | 52 | 1018.4 |
| 20260830170544 | 88 | 142 | 3.0 | 7.0 | 0.00 | 0.00 | 0.00 | 53 | 1018.4 |
| 20260830170111 | 88 | 234 | 3.0 | 7.0 | 0.00 | 0.00 | 0.00 | 51 | 1018.5 |
| 20260830165546 | 87 | 190 | 3.0 | 11.0 | 0.00 | 0.00 | 0.00 | 52 | 1018.6 |
| 20260830165044 | 87 | 157 | 4.0 | 11.0 | 0.00 | 0.00 | 0.00 | 53 | 1018.7 |
| 20260830164607 | 86 | 217 | 3.0 | 10.0 | 0.00 | 0.00 | 0.00 | 53 | 1018.7 |
| 20260830164043 | 86 | 199 | 4.0 | 10.0 | 0.00 | 0.00 | 0.00 | 51 | 1018.7 |
| 20260830163545 | 87 | 267 | 4.0 | 11.0 | 0.00 | 0.00 | 0.00 | 51 | 1018.7 |
| 20260830163103 | 88 | 193 | 3.0 | 11.0 | 0.00 | 0.00 | 0.00 | 51 | 1018.7 |
| 20260830162544 | 87 | 229 | 3.0 | 9.0 | 0.00 | 0.00 | 0.00 | 52 | 1018.8 |
| 20260830162044 | 87 | 169 | 3.0 | 8.0 | 0.00 | 0.00 | 0.00 | 51 | 1018.7 |
| 20260830161621 | 87 | 154 | 1.0 | 6.0 | 0.00 | 0.00 | 0.00 | 54 | 1018.7 |
| 20260830161045 | 86 | 248 | 1.0 | 7.0 | 0.00 | 0.00 | 0.00 | 56 | 1018.7 |
| 20260830160544 | 85 | 141 | 2.0 | 8.0 | 0.00 | 0.00 | 0.00 | 53 | 1018.7 |
| 20260830160108 | 85 | 137 | 3.0 | 8.0 | 0.00 | 0.00 | 0.00 | 54 | 1018.6 |
| 20260830155546 | 85 | 200 | 3.0 | 8.0 | 0.00 | 0.00 | 0.00 | 56 | 1018.6 |
| 20260830155043 | 84 | 188 | 3.0 | 8.0 | 0.00 | 0.00 | 0.00 | 55 | 1018.7 |
| 20260830154602 | 84 | 153 | 2.0 | 6.0 | 0.00 | 0.00 | 0.00 | 54 | 1018.6 |
| 20260830154044 | 84 | 218 | 2.0 | 6.0 | 0.00 | 0.00 | 0.00 | 55 | 1018.5 |
| 20260830153544 | 84 | 207 | 2.0 | 6.0 | 0.00 | 0.00 | 0.00 | 57 | 1018.5 |
| 20260830153108 | 83 | 175 | 2.0 | 9.0 | 0.00 | 0.00 | 0.00 | 56 | 1018.4 |
| 20260830152543 | 83 | 155 | 4.0 | 9.0 | 0.00 | 0.00 | 0.00 | 56 | 1018.5 |
| 20260830152045 | 83 | 140 | 3.0 | 8.0 | 0.00 | 0.00 | 0.00 | 56 | 1018.4 |
| 20260830151559 | 83 | 157 | 3.0 | 8.0 | 0.00 | 0.00 | 0.00 | 55 | 1018.4 |
| 20260830151045 | 82 | 131 | 3.0 | 8.0 | 0.00 | 0.00 | 0.00 | 59 | 1018.4 |
| 20260830150544 | 82 | 191 | 2.0 | 8.0 | 0.00 | 0.00 | 0.00 | 58 | 1018.4 |
| 20260830150119 | 81 | 196 | 2.0 | 8.0 | 0.00 | 0.00 | 0.00 | 58 | 1018.4 |
| 20260830145543 | 81 | 175 | 3.0 | 10.0 | 0.00 | 0.00 | 0.00 | 58 | 1018.4 |
| 20260830145043 | 81 | 188 | 3.0 | 10.0 | 0.00 | 0.00 | 0.00 | 58 | 1018.3 |
| 20260830144606 | 81 | 66 | 2.0 | 9.0 | 0.00 | 0.00 | 0.00 | 60 | 1018.3 |
| 20260830144043 | 80 | 188 | 3.0 | 9.0 | 0.00 | 0.00 | 0.00 | 58 | 1018.3 |
| 20260830143544 | 80 | 209 | 3.0 | 9.0 | 0.00 | 0.00 | 0.00 | 57 | 1018.3 |
| 20260830143102 | 80 | 184 | 2.0 | 7.0 | 0.00 | 0.00 | 0.00 | 59 | 1018.1 |
| 20260830142544 | 79 | 165 | 3.0 | 7.0 | 0.00 | 0.00 | 0.00 | 58 | 1018.2 |
| 20260830142042 | 79 | 123 | 2.0 | 9.0 | 0.00 | 0.00 | 0.00 | 59 | 1018.1 |
| 20260830141602 | 79 | 109 | 1.0 | 9.0 | 0.00 | 0.00 | 0.00 | 59 | 1018.2 |
| 20260830141042 | 79 | 182 | 3.0 | 7.0 | 0.00 | 0.00 | 0.00 | 59 | 1018.3 |
| 20260830140544 | 78 | 162 | 2.0 | 8.0 | 0.00 | 0.00 | 0.00 | 59 | 1018.3 |
| 20260830140109 | 78 | 160 | 2.0 | 8.0 | 0.00 | 0.00 | 0.00 | 59 | 1018.3 |
| 20260830135541 | 78 | 129 | 2.0 | 5.0 | 0.00 | 0.00 | 0.00 | 60 | 1018.3 |
| 20260830135044 | 78 | 161 | 1.0 | 6.0 | 0.00 | 0.00 | 0.00 | 61 | 1018.4 |
| 20260830134603 | 77 | 142 | 2.0 | 9.0 | 0.00 | 0.00 | 0.00 | 61 | 1018.4 |
| 20260830134042 | 76 | 157 | 3.0 | 9.0 | 0.00 | 0.00 | 0.00 | 61 | 1018.3 |
| 20260830133542 | 75 | 134 | 3.0 | 9.0 | 0.00 | 0.00 | 0.00 | 63 | 1018.2 |
| 20260830133100 | 75 | 122 | 2.0 | 9.0 | 0.00 | 0.00 | 0.00 | 63 | 1018.3 |
| 20260830132542 | 74 | 196 | 3.0 | 7.0 | 0.00 | 0.00 | 0.00 | 64 | 1018.2 |
| 20260830132042 | 74 | 149 | 2.0 | 7.0 | 0.00 | 0.00 | 0.00 | 64 | 1018.2 |
| 20260830131600 | 73 | 112 | 2.0 | 7.0 | 0.00 | 0.00 | 0.00 | 64 | 1018.3 |
| 20260830131041 | 73 | 125 | 1.0 | 7.0 | 0.00 | 0.00 | 0.00 | 65 | 1018.3 |
| 20260830130542 | 73 | 158 | 2.0 | 7.0 | 0.00 | 0.00 | 0.00 | 64 | 1018.3 |
| 20260830130111 | 72 | 213 | 2.0 | 9.0 | 0.00 | 0.00 | 0.00 | 64 | 1018.3 |
| 20260830125542 | 72 | 103 | 1.0 | 9.0 | 0.00 | 0.00 | 0.00 | 64 | 1018.2 |
| 20260830125042 | 72 | 123 | 1.0 | 7.0 | 0.00 | 0.00 | 0.00 | 64 | 1018.2 |
| 20260830124610 | 72 | 134 | 1.0 | 4.0 | 0.00 | 0.00 | 0.00 | 65 | 1018.2 |
| 20260830124044 | 72 | 131 | 1.0 | 4.0 | 0.00 | 0.00 | 0.00 | 64 | 1018.2 |
| 20260830123543 | 71 | 144 | 1.0 | 4.0 | 0.00 | 0.00 | 0.00 | 64 | 1018.3 |
| 20260830123101 | 71 | 154 | 1.0 | 6.0 | 0.00 | 0.00 | 0.00 | 64 | 1018.2 |
| 20260830122541 | 71 | 138 | 1.0 | 6.0 | 0.00 | 0.00 | 0.00 | 65 | 1018.1 |
| 20260830122042 | 71 | 178 | 2.0 | 6.0 | 0.00 | 0.00 | 0.00 | 65 | 1018.2 |
| 20260830121602 | 70 | 130 | 2.0 | 6.0 | 0.00 | 0.00 | 0.00 | 66 | 1018.2 |
| 20260830121042 | 70 | 148 | 1.0 | 4.0 | 0.00 | 0.00 | 0.00 | 66 | 1018.2 |
| 20260830120542 | 70 | 126 | 1.0 | 4.0 | 0.00 | 0.00 | 0.00 | 66 | 1018.2 |
| 20260830120100 | 70 | 143 | 0.0 | 3.0 | 0.00 | 0.00 | 0.00 | 66 | 1018.2 |